User: anonymous   Login
Location: Clinton NY
(43.0598°N, 75.3602°W)
Time: 12:52:10
(UTC-04:00)
Language:

ISS - Orbit

View from above orbital plane
View from above orbital plane
View from above satellite
View from above satellite

Ground track
Ground track

The orbit data is extracted from the following two-line orbital elements,

1 25544U 98067A   15090.55997958  .00016867  00000-0  24909-3 0  9997
2 25544 051.6467 111.8303 0006284 156.4629 341.9393 15.55450652935952
Epoch (UTC): 31 March 2015 13:26:22
Eccentricity: 0.0006284
inclination: 51.6467°
perigee height: 396 km
apogee height: 405 km
right ascension of ascending node: 111.8303°
argument of perigee: 156.4629°
revolutions per day: 15.55450652
mean anomaly at epoch: 341.9393°
orbit number at epoch: 93595

The dashed part of the orbit path shows where the satellite is in the earth's shadow,  

DLR